| time (UTC) | temp C | wind direction | speed KPH | gust KPH | rain 1hr cm | rain 24hr cm | rain mn cm | humidity % | barometer mb |
| 20260902160004 | 23 | 36 | 6.4 | 11.3 | 0.00 | 0.00 | 0.00 | 17 | 1023.9 |
| 20260902154503 | 23 | 20 | 4.8 | 11.3 | 0.00 | 0.00 | 0.00 | 18 | 1023.9 |
| 20260902154005 | 23 | 44 | 3.2 | 8.0 | 0.00 | 0.00 | 0.00 | 18 | 1024.0 |
| 20260902153503 | 23 | 35 | 1.6 | 4.8 | 0.00 | 0.00 | 0.00 | 18 | 1023.9 |
| 20260902150004 | 22 | 22 | 1.6 | 4.8 | 0.00 | 0.00 | 0.00 | 18 | 1023.7 |
| 20260902145004 | 22 | 342 | 0.0 | 3.2 | 0.00 | 0.00 | 0.00 | 19 | 1023.6 |
| 20260902144503 | 21 | 342 | 0.0 | 0.0 | 0.00 | 0.00 | 0.00 | 19 | 1023.6 |
| 20260902144004 | 21 | 342 | 0.0 | 0.0 | 0.00 | 0.00 | 0.00 | 19 | 1023.5 |
| 20260902143504 | 21 | 342 | 0.0 | 0.0 | 0.00 | 0.00 | 0.00 | 20 | 1023.5 |
| 20260902143003 | 20 | 342 | 0.0 | 0.0 | 0.00 | 0.00 | 0.00 | 20 | 1023.6 |
| 20260902142503 | 20 | 342 | 0.0 | 0.0 | 0.00 | 0.00 | 0.00 | 20 | 1023.5 |
| 20260902141529 | 19 | 341 | 0.0 | 3.2 | 0.00 | 0.00 | 0.00 | 20 | 1023.5 |
| 20260902141004 | 18 | 331 | 0.0 | 4.8 | 0.00 | 0.00 | 0.00 | 20 | 1023.3 |
| 20260902134004 | 18 | 271 | 3.2 | 4.8 | 0.00 | 0.00 | 0.00 | 21 | 1023.0 |
| 20260902133503 | 18 | 261 | 1.6 | 4.8 | 0.00 | 0.00 | 0.00 | 21 | 1022.9 |
| 20260902132503 | 18 | 267 | 3.2 | 11.3 | 0.00 | 0.00 | 0.00 | 23 | 1022.8 |
| 20260902132004 | 16 | 263 | 1.6 | 9.7 | 0.00 | 0.00 | 0.00 | 24 | 1022.8 |
| 20260902131503 | 16 | 218 | 0.0 | 4.8 | 0.00 | 0.00 | 0.00 | 24 | 1022.9 |
| 20260902131004 | 17 | 211 | 1.6 | 4.8 | 0.00 | 0.00 | 0.00 | 24 | 1022.9 |
| 20260902130004 | 16 | 230 | 1.6 | 4.8 | 0.00 | 0.00 | 0.00 | 24 | 1022.9 |
| 20260902125503 | 17 | 205 | 0.0 | 4.8 | 0.00 | 0.00 | 0.00 | 24 | 1022.9 |
| 20260902124504 | 17 | 223 | 1.6 | 4.8 | 0.00 | 0.00 | 0.00 | 24 | 1022.9 |
| 20260902123004 | 17 | 256 | 3.2 | 8.0 | 0.00 | 0.00 | 0.00 | 24 | 1022.9 |
| 20260902122503 | 17 | 240 | 1.6 | 8.0 | 0.00 | 0.00 | 0.00 | 24 | 1023.0 |
| 20260902122004 | 17 | 240 | 1.6 | 4.8 | 0.00 | 0.00 | 0.00 | 25 | 1023.0 |
| 20260902121503 | 17 | 242 | 3.2 | 8.0 | 0.00 | 0.00 | 0.00 | 25 | 1023.0 |
| 20260902121004 | 17 | 231 | 4.8 | 9.7 | 0.00 | 0.00 | 0.00 | 25 | 1022.9 |
| 20260902120503 | 17 | 233 | 4.8 | 9.7 | 0.00 | 0.00 | 0.00 | 25 | 1022.9 |
| 20260902120004 | 17 | 231 | 3.2 | 11.3 | 0.00 | 0.00 | 0.00 | 26 | 1023.0 |
| 20260902115503 | 17 | 229 | 4.8 | 9.7 | 0.00 | 0.00 | 0.00 | 26 | 1022.9 |
| 20260902115004 | 17 | 226 | 6.4 | 9.7 | 0.00 | 0.00 | 0.00 | 26 | 1022.9 |
| 20260902114504 | 17 | 235 | 6.4 | 12.9 | 0.00 | 0.00 | 0.00 | 26 | 1022.9 |
| 20260902113503 | 17 | 219 | 3.2 | 4.8 | 0.00 | 0.00 | 0.00 | 28 | 1022.9 |
| 20260902112503 | 17 | 228 | 3.2 | 9.7 | 0.00 | 0.00 | 0.00 | 27 | 1022.7 |
| 20260902112004 | 16 | 225 | 6.4 | 9.7 | 0.00 | 0.00 | 0.00 | 27 | 1022.6 |
| 20260902111503 | 17 | 236 | 3.2 | 9.7 | 0.00 | 0.00 | 0.00 | 27 | 1022.6 |
| 20260902111004 | 16 | 227 | 3.2 | 8.0 | 0.00 | 0.00 | 0.00 | 27 | 1022.7 |
| 20260902110503 | 16 | 228 | 4.8 | 11.3 | 0.00 | 0.00 | 0.00 | 28 | 1022.7 |
| 20260902110005 | 16 | 229 | 3.2 | 8.0 | 0.00 | 0.00 | 0.00 | 28 | 1022.7 |
| 20260902105504 | 16 | 246 | 1.6 | 4.8 | 0.00 | 0.00 | 0.00 | 28 | 1022.6 |
| 20260902104003 | 16 | 229 | 1.6 | 4.8 | 0.00 | 0.00 | 0.00 | 28 | 1022.6 |
| 20260902103510 | 16 | 248 | 0.0 | 3.2 | 0.00 | 0.00 | 0.00 | 28 | 1022.6 |
| 20260902103003 | 16 | 246 | 0.0 | 1.6 | 0.00 | 0.00 | 0.00 | 29 | 1022.8 |
| 20260902102003 | 17 | 240 | 3.2 | 4.8 | 0.00 | 0.00 | 0.00 | 28 | 1022.7 |
| 20260902101504 | 17 | 250 | 3.2 | 8.0 | 0.00 | 0.00 | 0.00 | 28 | 1022.7 |
| 20260902101003 | 17 | 243 | 1.6 | 4.8 | 0.00 | 0.00 | 0.00 | 29 | 1022.8 |
| 20260902100504 | 17 | 238 | 3.2 | 8.0 | 0.00 | 0.00 | 0.00 | 28 | 1022.7 |
| 20260902095504 | 17 | 234 | 3.2 | 4.8 | 0.00 | 0.00 | 0.00 | 29 | 1022.8 |
| 20260902095004 | 17 | 211 | 3.2 | 9.7 | 0.00 | 0.00 | 0.00 | 29 | 1022.9 |
| 20260902094503 | 17 | 256 | 1.6 | 4.8 | 0.00 | 0.00 | 0.00 | 29 | 1022.8 |
| 20260902094003 | 17 | 242 | 3.2 | 4.8 | 0.00 | 0.00 | 0.00 | 29 | 1022.9 |
| 20260902093503 | 17 | 251 | 4.8 | 9.7 | 0.00 | 0.00 | 0.00 | 30 | 1022.8 |
| 20260902093003 | 17 | 230 | 1.6 | 4.8 | 0.00 | 0.00 | 0.00 | 30 | 1022.9 |
| 20260902092503 | 17 | 236 | 0.0 | 4.8 | 0.00 | 0.00 | 0.00 | 30 | 1023.0 |
| 20260902091503 | 17 | 245 | 3.2 | 4.8 | 0.00 | 0.00 | 0.00 | 30 | 1022.9 |
| 20260902090004 | 17 | 245 | 3.2 | 4.8 | 0.00 | 0.00 | 0.00 | 29 | 1022.9 |
| 20260902085503 | 17 | 253 | 4.8 | 9.7 | 0.00 | 0.00 | 0.00 | 29 | 1022.9 |
| 20260902085004 | 18 | 263 | 4.8 | 9.7 | 0.00 | 0.00 | 0.00 | 30 | 1023.0 |
| 20260902084503 | 18 | 272 | 4.8 | 8.0 | 0.00 | 0.00 | 0.00 | 29 | 1023.0 |
| 20260902084004 | 18 | 264 | 3.2 | 8.0 | 0.00 | 0.00 | 0.00 | 29 | 1023.0 |
| 20260902083503 | 18 | 245 | 4.8 | 9.7 | 0.00 | 0.00 | 0.00 | 29 | 1023.0 |
| 20260902083004 | 18 | 232 | 4.8 | 12.9 | 0.00 | 0.00 | 0.00 | 29 | 1023.0 |
| 20260902082504 | 18 | 234 | 4.8 | 11.3 | 0.00 | 0.00 | 0.00 | 30 | 1022.9 |
| 20260902082003 | 19 | 239 | 3.2 | 9.7 | 0.00 | 0.00 | 0.00 | 30 | 1022.9 |
| 20260902081003 | 19 | 216 | 6.4 | 11.3 | 0.00 | 0.00 | 0.00 | 29 | 1022.8 |
| 20260902080503 | 19 | 228 | 8.0 | 14.5 | 0.00 | 0.00 | 0.00 | 30 | 1022.8 |
| 20260902080004 | 18 | 222 | 4.8 | 11.3 | 0.00 | 0.00 | 0.00 | 32 | 1022.8 |
| 20260902075504 | 17 | 220 | 0.0 | 3.2 | 0.00 | 0.00 | 0.00 | 30 | 1022.8 |
| 20260902075003 | 17 | 206 | 3.2 | 8.0 | 0.00 | 0.00 | 0.00 | 30 | 1022.9 |
| 20260902074504 | 17 | 203 | 4.8 | 8.0 | 0.00 | 0.00 | 0.00 | 31 | 1022.8 |
| 20260902074003 | 17 | 211 | 1.6 | 4.8 | 0.00 | 0.00 | 0.00 | 32 | 1022.8 |
| 20260902073503 | 18 | 214 | 1.6 | 4.8 | 0.00 | 0.00 | 0.00 | 32 | 1022.8 |
| 20260902073004 | 18 | 211 | 3.2 | 4.8 | 0.00 | 0.00 | 0.00 | 32 | 1022.7 |
| 20260902072503 | 18 | 266 | 0.0 | 1.6 | 0.00 | 0.00 | 0.00 | 31 | 1022.7 |
| 20260902071504 | 18 | 247 | 1.6 | 4.8 | 0.00 | 0.00 | 0.00 | 32 | 1022.7 |
| 20260902071003 | 19 | 234 | 1.6 | 8.0 | 0.00 | 0.00 | 0.00 | 31 | 1022.7 |
| 20260902070503 | 19 | 233 | 4.8 | 8.0 | 0.00 | 0.00 | 0.00 | 32 | 1022.7 |
| 20260902070004 | 19 | 234 | 3.2 | 8.0 | 0.00 | 0.00 | 0.00 | 32 | 1022.6 |
| 20260902065503 | 20 | 241 | 1.6 | 8.0 | 0.00 | 0.00 | 0.00 | 31 | 1022.7 |
| 20260902065004 | 20 | 230 | 8.0 | 12.9 | 0.00 | 0.00 | 0.00 | 31 | 1022.7 |
| 20260902064504 | 20 | 234 | 6.4 | 9.7 | 0.00 | 0.00 | 0.00 | 31 | 1022.7 |
| 20260902064003 | 20 | 238 | 6.4 | 11.3 | 0.00 | 0.00 | 0.00 | 31 | 1022.7 |
| 20260902063504 | 20 | 244 | 3.2 | 4.8 | 0.00 | 0.00 | 0.00 | 31 | 1022.6 |
| 20260902063003 | 20 | 247 | 3.2 | 8.0 | 0.00 | 0.00 | 0.00 | 30 | 1022.7 |
| 20260902062004 | 20 | 235 | 6.4 | 12.9 | 0.00 | 0.00 | 0.00 | 31 | 1022.7 |
| 20260902061003 | 20 | 225 | 4.8 | 8.0 | 0.00 | 0.00 | 0.00 | 31 | 1022.7 |
| 20260902055503 | 21 | 233 | 6.4 | 12.9 | 0.00 | 0.00 | 0.00 | 33 | 1022.5 |
| 20260902055005 | 21 | 225 | 3.2 | 8.0 | 0.00 | 0.00 | 0.00 | 32 | 1022.6 |
| 20260902054503 | 21 | 236 | 4.8 | 9.7 | 0.00 | 0.00 | 0.00 | 32 | 1022.5 |
| 20260902054003 | 21 | 228 | 4.8 | 11.3 | 0.00 | 0.00 | 0.00 | 31 | 1022.6 |
| 20260902053504 | 21 | 229 | 4.8 | 11.3 | 0.00 | 0.00 | 0.00 | 31 | 1022.6 |
| 20260902053003 | 21 | 235 | 8.0 | 14.5 | 0.00 | 0.00 | 0.00 | 31 | 1022.8 |
| 20260902051503 | 21 | 220 | 4.8 | 9.7 | 0.00 | 0.00 | 0.00 | 31 | 1023.0 |
| 20260902051004 | 22 | 229 | 4.8 | 9.7 | 0.00 | 0.00 | 0.00 | 30 | 1023.0 |
| 20260902050007 | 22 | 233 | 8.0 | 12.9 | 0.00 | 0.00 | 0.00 | 30 | 1022.9 |
| 20260902045504 | 22 | 223 | 6.4 | 11.3 | 0.00 | 0.00 | 0.00 | 30 | 1022.9 |
| 20260902045004 | 22 | 234 | 6.4 | 12.9 | 0.00 | 0.00 | 0.00 | 31 | 1022.9 |
| 20260902044503 | 22 | 236 | 8.0 | 16.1 | 0.00 | 0.00 | 0.00 | 30 | 1022.8 |
| 20260902044004 | 22 | 236 | 3.2 | 11.3 | 0.00 | 0.00 | 0.00 | 30 | 1022.7 |
| 20260902043004 | 22 | 239 | 4.8 | 12.9 | 0.00 | 0.00 | 0.00 | 30 | 1022.6 |
| 20260902042503 | 23 | 224 | 8.0 | 12.9 | 0.00 | 0.00 | 0.00 | 30 | 1022.3 |
| 20260902042004 | 23 | 222 | 9.7 | 16.1 | 0.00 | 0.00 | 0.00 | 29 | 1022.4 |
| 20260902041504 | 23 | 223 | 9.7 | 14.5 | 0.00 | 0.00 | 0.00 | 29 | 1022.2 |
| 20260902041003 | 23 | 195 | 12.9 | 19.3 | 0.00 | 0.00 | 0.00 | 29 | 1022.3 |
| 20260902040004 | 23 | 237 | 9.7 | 22.5 | 0.00 | 0.00 | 0.00 | 28 | 1022.2 |
| 20260902035503 | 23 | 237 | 8.0 | 14.5 | 0.00 | 0.00 | 0.00 | 28 | 1022.1 |
| 20260902034503 | 23 | 248 | 8.0 | 14.5 | 0.00 | 0.00 | 0.00 | 28 | 1022.1 |
| 20260902034003 | 23 | 216 | 9.7 | 20.9 | 0.00 | 0.00 | 0.00 | 29 | 1022.0 |
| 20260902033504 | 23 | 237 | 9.7 | 19.3 | 0.00 | 0.00 | 0.00 | 29 | 1022.0 |
| 20260902032004 | 23 | 234 | 12.9 | 22.5 | 0.00 | 0.00 | 0.00 | 29 | 1021.6 |
| 20260902031003 | 24 | 233 | 14.5 | 22.5 | 0.00 | 0.00 | 0.00 | 28 | 1021.4 |
| 20260902030504 | 24 | 240 | 14.5 | 22.5 | 0.00 | 0.00 | 0.00 | 28 | 1021.4 |
| 20260902030004 | 24 | 244 | 14.5 | 25.7 | 0.00 | 0.00 | 0.00 | 28 | 1021.4 |
| 20260902025504 | 24 | 230 | 11.3 | 19.3 | 0.00 | 0.00 | 0.00 | 28 | 1021.4 |
| 20260902025003 | 24 | 242 | 8.0 | 19.3 | 0.00 | 0.00 | 0.00 | 28 | 1021.4 |
| 20260902024003 | 25 | 232 | 14.5 | 22.5 | 0.00 | 0.00 | 0.00 | 28 | 1021.3 |
| 20260902023503 | 25 | 237 | 9.7 | 19.3 | 0.00 | 0.00 | 0.00 | 28 | 1021.3 |
| 20260902023004 | 25 | 251 | 14.5 | 20.9 | 0.00 | 0.00 | 0.00 | 29 | 1021.3 |
| 20260902022503 | 25 | 236 | 12.9 | 25.7 | 0.00 | 0.00 | 0.00 | 29 | 1021.0 |
| 20260902022003 | 25 | 231 | 11.3 | 24.1 | 0.00 | 0.00 | 0.00 | 29 | 1021.0 |
| 20260902021004 | 25 | 202 | 16.1 | 32.2 | 0.00 | 0.00 | 0.00 | 28 | 1020.8 |
| 20260902020504 | 25 | 205 | 19.3 | 32.2 | 0.00 | 0.00 | 0.00 | 28 | 1020.7 |
| 20260902020003 | 26 | 192 | 20.9 | 37.0 | 0.00 | 0.00 | 0.00 | 28 | 1020.6 |
| 20260902015503 | 26 | 192 | 25.7 | 38.6 | 0.00 | 0.00 | 0.00 | 27 | 1020.7 |
| 20260902015003 | 26 | 196 | 24.1 | 35.4 | 0.00 | 0.00 | 0.00 | 27 | 1020.8 |
| 20260902014003 | 27 | 189 | 27.4 | 41.8 | 0.00 | 0.00 | 0.00 | 27 | 1020.8 |
| 20260902013504 | 27 | 180 | 29.0 | 41.8 | 0.00 | 0.00 | 0.00 | 27 | 1020.9 |
| 20260902013004 | 27 | 181 | 25.7 | 37.0 | 0.00 | 0.00 | 0.00 | 26 | 1021.0 |
| 20260902012004 | 28 | 191 | 22.5 | 33.8 | 0.00 | 0.00 | 0.00 | 21 | 1021.1 |
| 20260902011503 | 28 | 191 | 24.1 | 35.4 | 0.00 | 0.00 | 0.00 | 22 | 1021.2 |
| 20260902010004 | 28 | 197 | 22.5 | 32.2 | 0.00 | 0.00 | 0.00 | 21 | 1021.5 |
| 20260902005503 | 28 | 198 | 22.5 | 32.2 | 0.00 | 0.00 | 0.00 | 21 | 1021.5 |
| 20260902004504 | 28 | 191 | 22.5 | 32.2 | 0.00 | 0.00 | 0.00 | 19 | 1021.6 |
| 20260902004004 | 29 | 202 | 22.5 | 33.8 | 0.00 | 0.00 | 0.00 | 19 | 1021.6 |
| 20260902003504 | 29 | 186 | 17.7 | 33.8 | 0.00 | 0.00 | 0.00 | 19 | 1021.7 |
| 20260902003003 | 30 | 198 | 20.9 | 32.2 | 0.00 | 0.00 | 0.00 | 19 | 1021.6 |
| 20260902002503 | 30 | 208 | 22.5 | 33.8 | 0.00 | 0.00 | 0.00 | 18 | 1021.6 |
| 20260902002004 | 30 | 215 | 22.5 | 35.4 | 0.00 | 0.00 | 0.00 | 17 | 1021.6 |
| 20260902001504 | 30 | 209 | 25.7 | 35.4 | 0.00 | 0.00 | 0.00 | 17 | 1021.6 |
| 20260902000504 | 30 | 195 | 16.1 | 29.0 | 0.00 | 0.00 | 0.00 | 17 | 1021.7 |
| 20260902000003 | 30 | 217 | 20.9 | 33.8 | 0.00 | 0.00 | 0.00 | 17 | 1021.8 |
| 20260901235504 | 30 | 218 | 20.9 | 32.2 | 0.00 | 0.00 | 0.00 | 17 | 1021.7 |
| 20260901235003 | 30 | 210 | 22.5 | 33.8 | 0.00 | 0.00 | 0.00 | 17 | 1021.7 |
| 20260901233503 | 31 | 205 | 20.9 | 32.2 | 0.00 | 0.00 | 0.00 | 15 | 1021.7 |
| 20260901233004 | 31 | 205 | 22.5 | 35.4 | 0.00 | 0.00 | 0.00 | 15 | 1021.5 |
| 20260901232503 | 31 | 191 | 22.5 | 33.8 | 0.00 | 0.00 | 0.00 | 13 | 1021.7 |
| 20260901232004 | 31 | 206 | 20.9 | 38.6 | 0.00 | 0.00 | 0.00 | 14 | 1021.7 |
| 20260901231503 | 31 | 191 | 27.4 | 38.6 | 0.00 | 0.00 | 0.00 | 14 | 1021.8 |
| 20260901231004 | 30 | 197 | 27.4 | 41.8 | 0.00 | 0.00 | 0.00 | 14 | 1021.7 |
| 20260901230504 | 31 | 183 | 32.2 | 49.9 | 0.00 | 0.00 | 0.00 | 14 | 1021.7 |
| 20260901230003 | 31 | 189 | 30.6 | 41.8 | 0.00 | 0.00 | 0.00 | 12 | 1021.7 |
| 20260901225504 | 31 | 190 | 27.4 | 46.7 | 0.00 | 0.00 | 0.00 | 11 | 1021.7 |
| 20260901225004 | 31 | 193 | 22.5 | 46.7 | 0.00 | 0.00 | 0.00 | 12 | 1021.8 |
| 20260901224504 | 31 | 178 | 30.6 | 46.7 | 0.00 | 0.00 | 0.00 | 11 | 1021.8 |
| 20260901224003 | 31 | 184 | 30.6 | 46.7 | 0.00 | 0.00 | 0.00 | 10 | 1021.8 |
| 20260901223005 | 31 | 178 | 32.2 | 53.1 | 0.00 | 0.00 | 0.00 | 9 | 1021.8 |
| 20260901222503 | 31 | 178 | 30.6 | 48.3 | 0.00 | 0.00 | 0.00 | 11 | 1021.8 |
| 20260901222004 | 31 | 184 | 30.6 | 48.3 | 0.00 | 0.00 | 0.00 | 11 | 1021.8 |
| 20260901221504 | 31 | 186 | 33.8 | 48.3 | 0.00 | 0.00 | 0.00 | 11 | 1021.9 |
| 20260901220503 | 31 | 197 | 27.4 | 45.1 | 0.00 | 0.00 | 0.00 | 10 | 1021.9 |
| 20260901220003 | 31 | 191 | 30.6 | 48.3 | 0.00 | 0.00 | 0.00 | 13 | 1021.9 |
| 20260901215504 | 31 | 191 | 32.2 | 49.9 | 0.00 | 0.00 | 0.00 | 14 | 1022.1 |
| 20260901215004 | 32 | 215 | 25.7 | 38.6 | 0.00 | 0.00 | 0.00 | 11 | 1022.1 |
| 20260901213503 | 31 | 181 | 29.0 | 41.8 | 0.00 | 0.00 | 0.00 | 12 | 1022.1 |
| 20260901213004 | 31 | 204 | 25.7 | 40.2 | 0.00 | 0.00 | 0.00 | 12 | 1022.2 |
| 20260901212503 | 31 | 201 | 22.5 | 33.8 | 0.00 | 0.00 | 0.00 | 13 | 1022.2 |
| 20260901212004 | 31 | 198 | 25.7 | 37.0 | 0.00 | 0.00 | 0.00 | 14 | 1022.3 |
| 20260901211503 | 31 | 205 | 27.4 | 38.6 | 0.00 | 0.00 | 0.00 | 11 | 1022.3 |
| 20260901210004 | 31 | 190 | 29.0 | 41.8 | 0.00 | 0.00 | 0.00 | 12 | 1022.3 |
| 20260901205504 | 31 | 207 | 29.0 | 45.1 | 0.00 | 0.00 | 0.00 | 11 | 1022.4 |
| 20260901205003 | 31 | 206 | 25.7 | 38.6 | 0.00 | 0.00 | 0.00 | 12 | 1022.3 |
| 20260901204504 | 31 | 193 | 29.0 | 41.8 | 0.00 | 0.00 | 0.00 | 12 | 1022.3 |
| 20260901204004 | 31 | 200 | 24.1 | 40.2 | 0.00 | 0.00 | 0.00 | 13 | 1022.3 |
| 20260901203004 | 31 | 207 | 25.7 | 45.1 | 0.00 | 0.00 | 0.00 | 14 | 1022.4 |
| 20260901202503 | 31 | 188 | 25.7 | 46.7 | 0.00 | 0.00 | 0.00 | 14 | 1022.6 |
| 20260901202004 | 31 | 197 | 27.4 | 40.2 | 0.00 | 0.00 | 0.00 | 14 | 1022.6 |
| 20260901201004 | 31 | 199 | 30.6 | 46.7 | 0.00 | 0.00 | 0.00 | 16 | 1022.7 |
| 20260901200504 | 31 | 203 | 25.7 | 41.8 | 0.00 | 0.00 | 0.00 | 16 | 1022.9 |
| 20260901194503 | 30 | 208 | 30.6 | 56.3 | 0.00 | 0.00 | 0.00 | 17 | 1022.9 |
| 20260901194003 | 30 | 191 | 32.2 | 46.7 | 0.00 | 0.00 | 0.00 | 16 | 1022.9 |
| 20260901193504 | 30 | 203 | 29.0 | 45.1 | 0.00 | 0.00 | 0.00 | 19 | 1023.1 |
| 20260901193004 | 30 | 196 | 29.0 | 49.9 | 0.00 | 0.00 | 0.00 | 21 | 1023.3 |
| 20260901192503 | 30 | 195 | 25.7 | 38.6 | 0.00 | 0.00 | 0.00 | 23 | 1023.4 |
| 20260901192003 | 30 | 206 | 30.6 | 48.3 | 0.00 | 0.00 | 0.00 | 24 | 1023.3 |
| 20260901191003 | 29 | 190 | 25.7 | 45.1 | 0.00 | 0.00 | 0.00 | 23 | 1023.5 |
| 20260901190504 | 29 | 181 | 29.0 | 45.1 | 0.00 | 0.00 | 0.00 | 23 | 1023.5 |
| 20260901190003 | 29 | 187 | 27.4 | 48.3 | 0.00 | 0.00 | 0.00 | 22 | 1023.5 |
| 20260901185503 | 29 | 177 | 33.8 | 51.5 | 0.00 | 0.00 | 0.00 | 23 | 1023.5 |
| 20260901185004 | 29 | 183 | 33.8 | 48.3 | 0.00 | 0.00 | 0.00 | 23 | 1023.4 |
| 20260901184504 | 29 | 217 | 27.4 | 46.7 | 0.00 | 0.00 | 0.00 | 24 | 1023.4 |
| 20260901183504 | 29 | 202 | 30.6 | 41.8 | 0.00 | 0.00 | 0.00 | 22 | 1023.4 |
| 20260901183003 | 29 | 191 | 30.6 | 49.9 | 0.00 | 0.00 | 0.00 | 23 | 1023.3 |
| 20260901182503 | 29 | 188 | 35.4 | 56.3 | 0.00 | 0.00 | 0.00 | 23 | 1023.3 |
| 20260901182003 | 29 | 199 | 32.2 | 46.7 | 0.00 | 0.00 | 0.00 | 22 | 1023.4 |
| 20260901181503 | 29 | 200 | 30.6 | 51.5 | 0.00 | 0.00 | 0.00 | 25 | 1023.6 |
| 20260901181004 | 28 | 190 | 32.2 | 49.9 | 0.00 | 0.00 | 0.00 | 23 | 1023.6 |
| 20260901180503 | 29 | 196 | 29.0 | 41.8 | 0.00 | 0.00 | 0.00 | 23 | 1023.8 |
| 20260901180005 | 29 | 202 | 29.0 | 40.2 | 0.00 | 0.00 | 0.00 | 24 | 1023.6 |
| 20260901175504 | 29 | 208 | 22.5 | 37.0 | 0.00 | 0.00 | 0.00 | 24 | 1023.8 |
| 20260901175004 | 28 | 202 | 33.8 | 69.2 | 0.00 | 0.00 | 0.00 | 23 | 1023.8 |
| 20260901174503 | 28 | 212 | 27.4 | 38.6 | 0.00 | 0.00 | 0.00 | 23 | 1023.7 |
| 20260901174003 | 28 | 201 | 30.6 | 41.8 | 0.00 | 0.00 | 0.00 | 23 | 1023.7 |
| 20260901173003 | 28 | 197 | 24.1 | 40.2 | 0.00 | 0.00 | 0.00 | 22 | 1023.6 |
| 20260901172003 | 28 | 187 | 27.4 | 40.2 | 0.00 | 0.00 | 0.00 | 23 | 1023.7 |
| 20260901171503 | 28 | 196 | 27.4 | 38.6 | 0.00 | 0.00 | 0.00 | 22 | 1023.6 |
| 20260901170503 | 28 | 218 | 22.5 | 35.4 | 0.00 | 0.00 | 0.00 | 23 | 1023.7 |
| 20260901170003 | 28 | 182 | 22.5 | 35.4 | 0.00 | 0.00 | 0.00 | 23 | 1023.7 |
| 20260901165503 | 28 | 204 | 16.1 | 32.2 | 0.00 | 0.00 | 0.00 | 24 | 1023.6 |
| 20260901165004 | 28 | 207 | 19.3 | 38.6 | 0.00 | 0.00 | 0.00 | 24 | 1023.6 |
| 20260901164504 | 28 | 204 | 19.3 | 33.8 | 0.00 | 0.00 | 0.00 | 25 | 1023.6 |
| 20260901164004 | 28 | 217 | 20.9 | 32.2 | 0.00 | 0.00 | 0.00 | 26 | 1023.6 |